OPS 4682 DEB, 51486

Orbit data source: Space-Track

OPS 4682 DEB, 51486 is space debris in LEO originally from a launch on Sat, 03 Apr 1965 UTC launched from the Air Force Western Test Range (AFWTR). Debris objects in space refer to the collection of defunct objects orbiting the Earth. Examples of debris include non-operational satellites, rocket bodies, and fragments generated from explosions, collisions, or faulty payload assembly.

Loading next visibility...
Identifier
51486, 1965-027FW
Orbit
LEO
Country
Flag of USUS
Related business
Manufacturer
Unknown
Mission
Spacecraft
Bus & Motor
Unknown
Mass
Unknown
Launch date (UTC)
1965-04-03 (61 years ago)
Launch vehicle
Unknown
Launch site
Air Force Western Test Range (AFWTR)
Object type
Payload
Rocket body
Debris
Shape & HBR
Unknown
Radar Cross Section
Small (<0.1 m²)

Expand to show TLE details & history
Last TLE update: 1 week ago

TLE from 1 week ago
0 OPS 4682 DEB
1 51486U 65027FW  26200.90907311  .00000265  00000-0  91528-3 0  9995
2 51486  90.2432   9.3742 0031373 131.6878 228.6933 12.95087910525447
Epoch: 2026-07-19T21:49Z
TLE epoch observation values (Epoch: 2026-07-19T21:49:03.916Z)
Latitude
-0.00011°
Longitude
104.40717°
Altitude
1,300.177 km
Speed
7.199 km/s
True Right ascension
00h 37m 29s
True Declination
0° 00' 00"
Sunlit
Object was in daylight at epoch
Visualization orbit readout
Latitude
Unknown
Longitude
Unknown
Altitude
Unknown
Speed
Unknown
Apparent Right ascension
Unknown
Apparent Declination
Unknown
Sunlit
N/A
Visualization observer readout
Local Sidereal Time
18:57:39
Azimuth
Unknown
Elevation
Unknown
Doppler factor
Unknown
Orbital elements
Apogee altitude
1,302.549 km
Perigee altitude
1,254.506 km
Semi-major axis
7,656.665 km
Eccentricity
0.00314
Inclination
90.2432°
RAAN
9.3742°
Arg. of periapsis
131.6878°
True anomaly
228.42394°
Mean anomaly
228.6933°
Eccentric anomaly
228.55855°
Mean motion
3.23954 °/min
Orbital period
111.13 mins
BSTAR
0.00091528
Loading maneuver chart data...
Computing Atmospheric mass density...
Loading historical data...
Loading historical data...
Loading historical data...
Loading historical data...
Loading historical data...
Loading historical data...
Loading historical data...

Documentation

Showing up to 5 results
|